Miscellaneous Local Product
Issued by NWS North Platte, NE

Home | Current Version | Previous Version | Text Only | Print | Product List | Glossary On
Versions: 1 2 3 4 5 6 7 8 9 10 11 12 13 14 15 16 17 18 19 20 21 22 23 24 25 26 27 28 29 30 31 32 33 34 35 36 37 38 39 40 41 42 43 44 45 46 47 48 49 50
000
AXUS43 KLBF 161110
MISLBF


WESTERN AND NORTH CENTRAL NEBRASKA HOURLY WEATHER ROUNDUP
NATIONAL WEATHER SERVICE NORTH PLATTE NE
600 AM CDT MON OCT 16 2017

NOTE: "FAIR" INDICATES FEW OR NO CLOUDS BELOW 12,000 FEET WITH NO
SIGNIFICANT WEATHER AND/OR OBSTRUCTIONS TO VISIBILITY.

NOTE: STATIONS NOT REPORTING VARIABLES SUCH AS SKY/WEATHER OR
PRESSURE ARE PROVIDED BY RAWS AND APRS NETWORKS AND ARE NOT UNDER
NATIONAL WEATHER SERVICE QUALITY CONTROL.

...OBSERVATIONS IN AND NEAR THE EASTERN PANHANDLE OF NEBRASKA...

CITY           SKY/WX    TMP DP  RH WIND       PRES   REMARKS
PINE RIDGE     CLEAR     42  27  55 W6        30.20R
GORDON         FAIR      41  28  60 SW14      30.20F
CHADRON        CLEAR     31  24  75 CALM      30.20F
ALLIANCE       CLOUDY    26  22  84 SW6       30.24F WCI  19
SIDNEY         CLOUDY    29  24  82 NW10      30.28F HAZE    WCI  20
CRESCENT LAKE    N/A     37  30  75 S3          N/A
$$

...OBSERVATIONS IN NORTHERN NEBRASKA AND FAR SOUTHERN SOUTH DAKOTA...

CITY           SKY/WX    TMP DP  RH WIND       PRES   REMARKS
WINNER         FAIR      44  31  60 SW7       30.20F
VALENTINE      CLOUDY    34  28  79 CALM      30.21F
THEDFORD       CLEAR     39  29  66 CALM      30.26F
AINSWORTH      CLEAR     40  32  73 S9        30.23F WCI  34
O`NEILL        CLEAR     37  33  84 S7        30.27F WCI  32
ORD            CLEAR     31  27  85 CALM      30.28F
BROKEN BOW     CLEAR     32  28  85 CALM      30.28F
VALENTINE NWR    N/A     38  28  68 S7          N/A  WCI  33
HALSEY           N/A     42  28  56 S3          N/A
BUTTE            N/A     38  31  75 S3          N/A
CHAMBERS         N/A     39  29  69 CALM        N/A
EWING            N/A     33  30  90 CALM        N/A
$$

...OBSERVATIONS IN SOUTHWEST NEBRASKA AND FAR NORTHEAST COLORADO...

CITY           SKY/WX    TMP DP  RH WIND       PRES   REMARKS
WRAY           FAIR      37  30  75 W8        30.30F WCI  31
HOLYOKE        FAIR      34  30  86 W5        30.30F WCI  30
IMPERIAL       CLOUDY    34  26  72 W5        30.30F WCI  30
OGALLALA       CLEAR     31  28  90 W5        30.28F WCI  26
NORTH PLATTE   CLOUDY    30  28  92 CALM      30.29F
MCCOOK         CLOUDY    34  30  85 SW5       30.31F WCI  30
LEXINGTON      CLEAR     32  30  92 NE3       30.30F
STAPLETON        N/A     33  29  84 CALM        N/A
GOTHENBURG       N/A     35  29  80 CALM        N/A
CALLAWAY         N/A     32  32 100 S7          N/A  WCI  26
$$

...OBSERVATIONS IN CENTRAL LINCOLN COUNTY AREA...

CITY           SKY/WX    TMP DP  RH WIND       PRES   REMARKS
N.P. AIRPORT   CLOUDY    30  28  92 CALM      30.29F
N.P. DOWNTOWN    N/A     33  30  90 CALM        N/A
N.P. SOUTHEAST   N/A     33  30  90 CALM        N/A
N.P. HILLCREST   N/A     41  32  69 CALM        N/A
$$

...SOME OBSERVATIONS FROM AROUND THE REGION...

CITY           SKY/WX    TMP DP  RH WIND       PRES   REMARKS
DENVER         CLOUDY    46  19  34 SW12      30.32F
LIMON          CLOUDY    24  22  91 N3        30.37S
ASPEN          CLOUDY    28  11  48 SW7       30.51F WCI  21
LARAMIE        CLOUDY    40  10  29 SW7       30.37F
CASPER         CLOUDY    41  17  38 W5        30.27R
CHEYENNE       CLOUDY    39  17  41 CALM      30.32F
SCOTTSBLUFF    CLOUDY    28  23  81 CALM      30.26S
GRAND ISLAND   CLEAR     36  34  92 SW3       30.32S
OMAHA          CLEAR     41  35  79 S6        30.33S
SIOUX FALLS    CLEAR     33  32  96 CALM      30.26F
PIERRE         CLEAR     32  29  88 E5        30.15F WCI  27
RAPID CITY     CLEAR     30  25  81 NW6       30.14F WCI  24
BISMARCK       CLEAR     31  27  85 E6        30.06F WCI  25
KANSAS CITY    CLEAR     42  37  82 SW7       30.38R
HILL CITY      CLEAR     35  32  88 W3        30.36S
WICHITA        CLEAR     40  39  97 S3        30.40S
DODGE CITY     CLEAR     37  29  72 S9        30.40S WCI  30
OKLAHOMA CITY  CLEAR     45  40  82 N6        30.42S
DALLAS         CLEAR     49  43  80 N9        30.36R
AMARILLO       CLOUDY    38  32  79 SW9       30.44F WCI  31
$$




USA.gov is the U.S. government's official web portal to all federal, state and local government web resources and services.